OBJECT BG, 61789

Orbit data source: Space-Track

You're viewing an Uncataloged Satellite

Recently launched and/or uncataloged satellites may have evolving metadata. Metadata may include but not limited to: Owner, Maufacturer, Bus, Motor, and Mission.

OBJECT BG, 61789 is a satellite in SSO that was launched on Mon, 04 Nov 2024 UTC via a SOYUZ-2-1B launch vehicle from the Vostochny Cosmodrome (VOSTO). Unknown objects in Earth's orbit typically refer to objects detected orbiting the Earth but have not yet been identified or cataloged. These objects could be anything from previously untracked satellites, spent rocket stages, debris from satellite collisions, or even natural meteoroids temporarily captured by Earth's gravity.

Loading next visibility...
Identifier
61789, 2024-199BG
Orbit
SSO
Country
Flag of TBDTBD
Related business
Manufacturer
Sputniks
Mission
Operational Commercial Communications
Bus & Motor
CUBESAT 3U?, Unknown motor
Mass
3 kg wet, 3 kg dry
Launch date (UTC)
2024-11-04 (2 years ago)
Launch vehicle
SOYUZ-2-1B
Launch site
Vostochny Cosmodrome (VOSTO)
Object type
Unknown
Shape & HBR
Box, 0.1 m
Radar Cross Section
0.035 m², Small (<0.1 m²)

Expand to show TLE details & history
Last TLE update: 11 hours ago

TLE from 11 hours ago
0 OBJECT BG
1 61789U 24199BG  26145.58141047  .00003025  00000-0  26184-3 0  9998
2 61789  97.3262 346.6045 0007418 135.8068 224.3749 14.97822344128658
Epoch: 2026-05-25T13:57Z
TLE epoch observation values (Epoch: 2026-05-25T13:57:13.864Z)
Latitude
-0.00003°
Longitude
-105.87041°
Altitude
580.377 km
Speed
7.568 km/s
True Right ascension
23h 06m 25s
True Declination
0° 00' 00"
Sunlit
Object was in daylight at epoch
Visualization orbit readout
Latitude
Unknown
Longitude
Unknown
Altitude
Unknown
Speed
Unknown
Apparent Right ascension
Unknown
Apparent Declination
Unknown
Sunlit
N/A
Visualization observer readout
Local Sidereal Time
10:01:35
Azimuth
Unknown
Elevation
Unknown
Doppler factor
Unknown
Orbital elements
Apogee altitude
575.773 km
Perigee altitude
565.464 km
Semi-major axis
6,948.755 km
Eccentricity
0.00074
Inclination
97.3262°
RAAN
346.6045°
Arg. of periapsis
135.8068°
True anomaly
224.31549°
Mean anomaly
224.3749°
Eccentric anomaly
224.34519°
Mean motion
3.74699 °/min
Orbital period
96.08 mins
BSTAR
0.00026184
Loading maneuver chart data...
Computing Atmospheric mass density...
Loading historical data...
Loading historical data...
Loading historical data...
Loading historical data...
Loading historical data...
Loading historical data...
Loading historical data...

Documentation

Showing up to 5 results
|